CMB512 KCHS-ETAR

Flight info

Callsign CMB512
Flight time N/A
Altitude 39000
Route PLMTO3 CRE DCT RAPZZ Q135 RREGG Q117 SAWED Q97 YAZUU DCT DRIFT Q439 MANTA DCT SHLEP DCT HTO DCT BOS Q75 COPLY Q475 SCUPP DCT EBONY N567B TUDEP/M084F400 NATW XETBO/N0487F410 DCT NORLA DCT PEWBI DCT OXLOW DCT KONAN UL607 SPI T180 NIVNU T847 OLIVI Q762 XIDOD
Aircraft B772/H-SDE2E3FGHIJ5LORVWXY/LB1D1

Departure

Time 2026-04-17 00:36
Airport Charleston International Airport (KCHS)

Arrival

Time N/A
Airport Ramstein Air Base (ETAR)
Time Latitude Longitude Altitude Speed Heading
2026-04-17 00:17 32.89241 -80.04567 43 ft 0 kts 89°
2026-04-17 00:29 32.89241 -80.04538 43 ft 9 kts 89°
2026-04-17 00:29 32.89266 -80.04474 43 ft 9 kts 29°
2026-04-17 00:29 32.89329 -80.04463 45 ft 9 kts
2026-04-17 00:29 32.89392 -80.04461 46 ft 9 kts
2026-04-17 00:30 32.89455 -80.04460 47 ft 9 kts
2026-04-17 00:30 32.89519 -80.04458 48 ft 9 kts
2026-04-17 00:30 32.89583 -80.04457 49 ft 9 kts
2026-04-17 00:30 32.89600 -80.04456 50 ft 0 kts
2026-04-17 00:31 32.89616 -80.04456 50 ft 11 kts
2026-04-17 00:31 32.89760 -80.04453 48 ft 23 kts
2026-04-17 00:31 32.89924 -80.04450 49 ft 23 kts
2026-04-17 00:31 32.90085 -80.04446 50 ft 23 kts
2026-04-17 00:32 32.90249 -80.04442 47 ft 23 kts
2026-04-17 00:32 32.90411 -80.04450 49 ft 23 kts 341°
2026-04-17 00:32 32.90552 -80.04548 49 ft 23 kts 327°
2026-04-17 00:32 32.90689 -80.04653 46 ft 23 kts 327°
2026-04-17 00:33 32.90828 -80.04756 50 ft 23 kts 326°
2026-04-17 00:33 32.90964 -80.04864 50 ft 23 kts 327°
2026-04-17 00:33 32.91102 -80.04966 50 ft 23 kts 329°
2026-04-17 00:33 32.91175 -80.04997 49 ft 6 kts 13°
2026-04-17 00:34 32.91230 -80.04926 53 ft 13 kts 59°
2026-04-17 00:34 32.91277 -80.04838 52 ft 8 kts 56°
2026-04-17 00:34 32.91264 -80.04779 50 ft 8 kts 144°
2026-04-17 00:34 32.91261 -80.04776 50 ft 0 kts 145°
2026-04-17 00:35 32.91250 -80.04768 56 ft 11 kts 147°
2026-04-17 00:35 32.90959 -80.04550 55 ft 96 kts 147°
2026-04-17 00:36 32.90140 -80.03965 129 ft 170 kts 151°
2026-04-17 00:36 32.89170 -80.03066 982 ft 185 kts 130°
2026-04-17 00:36 32.88815 -80.01491 1878 ft 217 kts 90°
2026-04-17 00:36 32.89120 -79.99674 2519 ft 227 kts 72°
2026-04-17 00:37 32.89641 -79.97884 3085 ft 228 kts 71°
2026-04-17 00:37 32.90092 -79.95994 3354 ft 250 kts 75°
2026-04-17 00:37 32.90553 -79.93906 3652 ft 271 kts 73°
2026-04-17 00:37 32.91100 -79.91729 4312 ft 278 kts 72°
2026-04-17 00:38 32.91696 -79.89516 5009 ft 284 kts 71°
2026-04-17 00:38 32.92320 -79.87262 5723 ft 289 kts 71°
2026-04-17 00:38 32.93133 -79.85108 6321 ft 292 kts 56°
2026-04-17 00:38 32.94331 -79.83113 6954 ft 297 kts 51°
2026-04-17 00:39 32.95605 -79.81174 7741 ft 297 kts 50°
2026-04-17 00:39 32.96869 -79.79224 8480 ft 299 kts 51°
2026-04-17 00:39 32.98123 -79.77232 9181 ft 302 kts 52°
2026-04-17 00:39 32.99373 -79.75209 9911 ft 305 kts 52°
2026-04-17 00:40 33.00640 -79.73148 10450 ft 314 kts 52°
2026-04-17 00:40 33.01955 -79.70935 10608 ft 339 kts 54°
2026-04-17 00:40 33.03273 -79.68538 10785 ft 363 kts 56°
2026-04-17 00:40 33.04680 -79.65921 11013 ft 384 kts 56°
2026-04-17 00:41 33.06136 -79.63199 11568 ft 395 kts 56°
2026-04-17 00:41 33.07632 -79.60414 12221 ft 402 kts 56°
2026-04-17 00:41 33.09157 -79.57581 13007 ft 406 kts 56°
2026-04-17 00:41 33.10698 -79.54728 13805 ft 411 kts 56°
2026-04-17 00:42 33.12256 -79.51847 14488 ft 416 kts 56°
2026-04-17 00:42 33.13835 -79.48930 15178 ft 422 kts 56°
2026-04-17 00:42 33.15439 -79.45960 15909 ft 427 kts 56°
2026-04-17 00:42 33.17042 -79.42994 16643 ft 432 kts 56°
2026-04-17 00:43 33.18681 -79.39958 17353 ft 437 kts 56°
2026-04-17 00:43 33.20411 -79.36940 18062 ft 440 kts 49°
2026-04-17 00:43 33.22582 -79.34343 18628 ft 446 kts 40°
2026-04-17 00:43 33.24950 -79.31924 19251 ft 450 kts 38°
2026-04-17 00:44 33.27367 -79.29520 19971 ft 453 kts 38°
2026-04-17 00:44 33.29795 -79.27090 20695 ft 456 kts 38°
2026-04-17 00:44 33.32227 -79.24615 21362 ft 461 kts 39°
2026-04-17 00:44 33.34666 -79.22093 22010 ft 465 kts 39°
2026-04-17 00:45 33.37115 -79.19531 22635 ft 470 kts 39°
2026-04-17 00:45 33.39547 -79.16969 23251 ft 474 kts 39°
2026-04-17 00:45 33.41221 -79.15201 23654 ft 476 kts 39°
2026-04-17 00:45 33.44523 -79.11706 24285 ft 481 kts 39°
2026-04-17 00:46 33.47048 -79.09034 24741 ft 485 kts 39°
2026-04-17 00:46 33.49587 -79.06346 25188 ft 489 kts 39°
2026-04-17 00:46 33.52147 -79.03634 25632 ft 493 kts 39°
2026-04-17 00:46 33.53855 -79.01826 25923 ft 495 kts 39°
2026-04-17 00:47 33.56475 -78.99048 26352 ft 499 kts 39°
2026-04-17 00:47 33.59050 -78.96317 26754 ft 502 kts 39°
2026-04-17 00:47 33.61675 -78.93529 27149 ft 506 kts 38°
2026-04-17 00:47 33.64321 -78.90717 27526 ft 509 kts 38°
2026-04-17 00:48 33.66988 -78.87880 27900 ft 513 kts 38°
2026-04-17 00:48 33.69663 -78.85032 28261 ft 516 kts 38°
2026-04-17 00:48 33.72355 -78.82162 28602 ft 519 kts 38°
2026-04-17 00:48 33.75057 -78.79279 28942 ft 521 kts 38°
2026-04-17 00:49 33.77778 -78.76375 29261 ft 524 kts 38°
2026-04-17 00:49 33.80512 -78.73472 29580 ft 525 kts 36°
2026-04-17 00:49 33.83497 -78.70969 29800 ft 520 kts 23°
2026-04-17 00:49 33.86775 -78.69153 30059 ft 519 kts 18°
2026-04-17 00:50 33.90077 -78.67516 30263 ft 520 kts 17°
2026-04-17 00:50 33.93444 -78.65861 30486 ft 522 kts 18°
2026-04-17 00:50 33.96794 -78.64159 30779 ft 522 kts 18°
2026-04-17 00:50 34.00113 -78.62411 31102 ft 521 kts 19°
2026-04-17 00:51 34.03429 -78.60621 31421 ft 520 kts 19°
2026-04-17 00:51 34.06629 -78.58873 31713 ft 520 kts 19°
2026-04-17 00:51 34.09843 -78.57115 32004 ft 520 kts 19°
2026-04-17 00:51 34.13134 -78.55317 32296 ft 519 kts 19°
2026-04-17 00:52 34.16436 -78.53520 32585 ft 519 kts 19°
2026-04-17 00:52 34.17502 -78.52940 32685 ft 519 kts 19°
2026-04-17 00:52 34.20128 -78.51510 32907 ft 518 kts 19°
2026-04-17 00:53 34.23359 -78.49521 33191 ft 522 kts 25°
2026-04-17 00:53 34.26430 -78.47177 33473 ft 525 kts 30°
2026-04-17 00:53 34.29304 -78.44520 33775 ft 528 kts 37°
2026-04-17 00:53 34.32071 -78.41581 34044 ft 529 kts 38°
2026-04-17 00:54 34.34810 -78.38597 34307 ft 528 kts 38°
2026-04-17 00:54 34.37531 -78.35618 34604 ft 527 kts 38°
2026-04-17 00:54 34.40264 -78.32637 34885 ft 526 kts 38°
2026-04-17 00:54 34.42990 -78.29686 35179 ft 525 kts 37°
2026-04-17 00:55 34.45727 -78.26739 35449 ft 524 kts 37°
2026-04-17 00:55 34.48453 -78.23814 35715 ft 524 kts 37°
2026-04-17 00:55 34.51175 -78.20895 35977 ft 523 kts 37°
2026-04-17 00:55 34.53903 -78.17967 36255 ft 522 kts 37°
2026-04-17 00:56 34.56579 -78.15092 36514 ft 521 kts 37°
2026-04-17 00:56 34.59292 -78.12172 36766 ft 521 kts 37°
2026-04-17 00:56 34.61999 -78.09254 36958 ft 522 kts 37°
2026-04-17 00:56 34.64718 -78.06322 36999 ft 524 kts 37°
2026-04-17 00:57 34.70155 -78.00447 37031 ft 521 kts 37°
2026-04-17 00:57 34.75560 -77.94594 37035 ft 519 kts 37°
2026-04-17 00:58 34.80961 -77.88738 37035 ft 520 kts 37°
2026-04-17 00:58 34.86354 -77.82881 37034 ft 521 kts 37°
2026-04-17 00:59 34.91838 -77.77111 37032 ft 520 kts 35°
2026-04-17 00:59 34.97348 -77.71474 37044 ft 521 kts 35°
2026-04-17 01:00 35.02893 -77.65753 37025 ft 522 kts 36°
2026-04-17 01:00 35.08427 -77.60000 37025 ft 522 kts 36°
2026-04-17 01:01 35.13993 -77.54330 37028 ft 519 kts 32°
2026-04-17 01:01 35.20021 -77.49572 37029 ft 513 kts 25°
2026-04-17 01:02 35.26159 -77.45098 37010 ft 514 kts 25°
2026-04-17 01:02 35.32290 -77.40573 37011 ft 515 kts 26°
2026-04-17 01:03 35.38411 -77.35989 37010 ft 516 kts 26°
2026-04-17 01:03 35.44535 -77.31381 36994 ft 516 kts 26°
2026-04-17 01:04 35.50663 -77.26767 36981 ft 517 kts 26°
2026-04-17 01:04 35.56762 -77.22169 37011 ft 517 kts 26°
2026-04-17 01:05 35.62902 -77.17532 37009 ft 518 kts 26°
2026-04-17 01:05 35.69045 -77.12885 37004 ft 518 kts 26°
2026-04-17 01:06 35.75180 -77.08230 36980 ft 518 kts 26°
2026-04-17 01:06 35.81283 -77.03590 36978 ft 518 kts 26°
2026-04-17 01:07 35.87413 -76.98920 36981 ft 518 kts 26°
2026-04-17 01:07 35.93577 -76.94338 36982 ft 516 kts 23°
2026-04-17 01:08 35.99905 -76.90110 36973 ft 516 kts 22°
2026-04-17 01:08 36.06254 -76.85963 36982 ft 517 kts 22°
2026-04-17 01:09 36.12609 -76.81767 36978 ft 518 kts 22°
2026-04-17 01:09 36.18918 -76.77558 36976 ft 518 kts 22°
2026-04-17 01:10 36.25267 -76.73303 36972 ft 519 kts 22°
2026-04-17 01:10 36.31617 -76.69042 36960 ft 519 kts 22°
2026-04-17 01:11 36.37962 -76.64779 36957 ft 519 kts 22°
2026-04-17 01:11 36.44320 -76.60500 36956 ft 519 kts 22°
2026-04-17 01:12 36.50646 -76.56236 36953 ft 520 kts 22°
2026-04-17 01:12 36.57006 -76.51940 36958 ft 520 kts 22°
2026-04-17 01:13 36.63373 -76.47631 36958 ft 521 kts 22°
2026-04-17 01:13 36.69729 -76.43320 36951 ft 521 kts 22°
2026-04-17 01:14 36.76099 -76.38993 36942 ft 521 kts 22°
2026-04-17 01:14 36.82473 -76.34654 36949 ft 521 kts 22°
2026-04-17 01:15 36.88835 -76.30315 36946 ft 521 kts 22°
2026-04-17 01:15 36.95206 -76.25961 36942 ft 521 kts 22°
2026-04-17 01:16 37.01539 -76.21626 36936 ft 522 kts 22°
2026-04-17 01:16 37.07910 -76.17256 36925 ft 522 kts 22°
2026-04-17 01:17 37.14302 -76.12863 36928 ft 522 kts 22°
2026-04-17 01:17 37.20681 -76.08471 36933 ft 523 kts 22°
2026-04-17 01:18 37.27034 -76.04087 36933 ft 523 kts 22°
2026-04-17 01:18 37.33416 -75.99675 36940 ft 523 kts 22°
2026-04-17 01:19 37.39798 -75.95254 36936 ft 523 kts 22°
2026-04-17 01:19 37.46137 -75.90854 36929 ft 523 kts 22°
2026-04-17 01:20 37.52518 -75.86417 36928 ft 523 kts 22°
2026-04-17 01:20 37.58843 -75.81826 36929 ft 525 kts 25°
2026-04-17 01:21 37.65101 -75.77051 36931 ft 526 kts 25°
2026-04-17 01:21 37.71372 -75.72287 36927 ft 525 kts 25°
2026-04-17 01:22 37.77657 -75.67547 36928 ft 525 kts 25°
2026-04-17 01:22 37.83930 -75.62803 36917 ft 526 kts 26°
2026-04-17 01:23 37.90050 -75.57649 36913 ft 529 kts 29°
2026-04-17 01:23 37.96096 -75.52318 36921 ft 529 kts 29°
2026-04-17 01:24 38.02158 -75.47029 36919 ft 529 kts 28°
2026-04-17 01:24 38.08176 -75.41731 36912 ft 530 kts 30°
2026-04-17 01:25 38.14100 -75.36125 36915 ft 531 kts 32°
2026-04-17 01:25 38.20003 -75.30461 36896 ft 531 kts 32°
2026-04-17 01:26 38.25921 -75.24838 36915 ft 530 kts 31°
2026-04-17 01:26 38.31844 -75.19230 36916 ft 530 kts 31°
2026-04-17 01:27 38.37729 -75.13644 36909 ft 530 kts 31°
2026-04-17 01:27 38.43643 -75.08013 36906 ft 530 kts 31°
2026-04-17 01:28 38.49444 -75.02173 36893 ft 533 kts 36°
2026-04-17 01:28 38.55004 -74.95903 36901 ft 532 kts 36°
2026-04-17 01:29 38.63628 -74.87018 36899 ft 531 kts 33°
2026-04-17 01:30 38.69392 -74.81074 36899 ft 531 kts 34°
2026-04-17 01:30 38.75083 -74.75113 36901 ft 532 kts 36°
2026-04-17 01:31 38.80623 -74.68785 36900 ft 534 kts 38°
2026-04-17 01:31 38.86075 -74.62316 36908 ft 534 kts 38°
2026-04-17 01:32 38.91554 -74.55880 36903 ft 533 kts 38°
2026-04-17 01:32 38.96140 -74.50562 36896 ft 532 kts 37°
2026-04-17 01:33 39.01802 -74.44450 36895 ft 531 kts 35°
2026-04-17 01:33 39.08433 -74.37409 36899 ft 531 kts 35°
2026-04-17 01:34 39.13184 -74.32288 36893 ft 532 kts 36°
2026-04-17 01:34 39.18841 -74.26136 36890 ft 532 kts 36°
2026-04-17 01:35 39.24460 -74.20010 36896 ft 532 kts 36°
2026-04-17 01:35 39.30120 -74.13832 36899 ft 532 kts 36°
2026-04-17 01:36 39.35777 -74.07646 36902 ft 532 kts 36°
2026-04-17 01:36 39.41458 -74.01521 36908 ft 529 kts 32°
2026-04-17 01:37 39.47546 -73.96257 36894 ft 525 kts 27°
2026-04-17 01:37 39.53737 -73.91228 36901 ft 525 kts 27°
2026-04-17 01:38 39.59913 -73.86128 36902 ft 526 kts 27°
2026-04-17 01:38 39.66065 -73.80974 36900 ft 526 kts 27°
2026-04-17 01:39 39.72177 -73.75840 36895 ft 526 kts 27°
2026-04-17 01:39 39.78303 -73.70612 36901 ft 529 kts 32°
2026-04-17 01:40 39.83878 -73.64288 36896 ft 535 kts 43°
2026-04-17 01:40 39.88642 -73.56798 36879 ft 537 kts 49°
2026-04-17 01:41 39.93725 -73.49754 36885 ft 531 kts 38°
2026-04-17 01:41 39.99242 -73.43338 36893 ft 531 kts 37°
2026-04-17 01:42 40.04737 -73.36979 36889 ft 531 kts 38°
2026-04-17 01:42 40.10228 -73.30502 36871 ft 532 kts 38°
2026-04-17 01:43 40.15698 -73.23980 36871 ft 532 kts 38°
2026-04-17 01:43 40.21168 -73.17438 36876 ft 532 kts 38°
2026-04-17 01:44 40.26639 -73.10890 36874 ft 533 kts 38°
2026-04-17 01:44 40.32078 -73.04368 36877 ft 533 kts 38°
2026-04-17 01:45 40.37545 -72.97798 36874 ft 533 kts 38°
2026-04-17 01:45 40.43010 -72.91215 36870 ft 533 kts 38°
2026-04-17 01:46 40.48469 -72.84623 36873 ft 533 kts 38°
2026-04-17 01:46 40.53929 -72.78015 36875 ft 533 kts 39°
2026-04-17 01:47 40.59382 -72.71400 36872 ft 533 kts 39°
2026-04-17 01:47 40.64829 -72.64776 36886 ft 533 kts 39°
2026-04-17 01:48 40.70233 -72.58193 36887 ft 532 kts 39°
2026-04-17 01:48 40.75685 -72.51552 36888 ft 532 kts 39°
2026-04-17 01:49 40.81127 -72.44908 36884 ft 532 kts 39°
2026-04-17 01:49 40.86522 -72.38302 36873 ft 532 kts 39°
2026-04-17 01:50 40.91997 -72.31713 36880 ft 530 kts 35°
2026-04-17 01:50 40.97947 -72.26059 36880 ft 525 kts 28°
2026-04-17 01:51 41.04030 -72.20698 36879 ft 525 kts 28°
2026-04-17 01:51 41.10114 -72.15294 36866 ft 526 kts 29°
2026-04-17 01:52 41.16129 -72.09870 36870 ft 526 kts 29°
2026-04-17 01:52 41.22183 -72.04370 36866 ft 526 kts 29°
2026-04-17 01:53 41.28229 -71.98867 36865 ft 526 kts 29°
2026-04-17 01:53 41.34279 -71.93353 36860 ft 526 kts 29°
2026-04-17 01:54 41.40278 -71.87875 36866 ft 526 kts 29°
2026-04-17 01:54 41.46314 -71.82350 36870 ft 526 kts 29°
2026-04-17 01:55 41.52344 -71.76818 36859 ft 526 kts 29°
2026-04-17 01:55 41.58375 -71.71272 36830 ft 526 kts 29°
2026-04-17 01:56 41.64399 -71.65719 36833 ft 525 kts 29°
2026-04-17 01:56 41.70413 -71.60163 36846 ft 525 kts 29°
2026-04-17 01:57 41.76420 -71.54601 36857 ft 524 kts 29°
2026-04-17 01:57 41.82381 -71.49068 36852 ft 524 kts 29°
2026-04-17 01:58 41.88376 -71.43491 36857 ft 524 kts 29°
2026-04-17 01:58 41.94364 -71.37907 36854 ft 524 kts 29°
2026-04-17 01:59 42.00353 -71.32310 36844 ft 524 kts 29°
2026-04-17 01:59 42.06332 -71.26708 36839 ft 523 kts 29°
2026-04-17 02:00 42.12309 -71.21096 36842 ft 523 kts 29°
2026-04-17 02:00 42.18245 -71.15508 36847 ft 523 kts 29°
2026-04-17 02:01 42.24217 -71.09873 36852 ft 523 kts 29°
2026-04-17 02:01 42.30199 -71.04217 36853 ft 523 kts 30°
2026-04-17 02:02 42.35508 -70.97453 36863 ft 535 kts 49°
2026-04-17 02:02 42.39300 -70.88746 36851 ft 541 kts 65°
2026-04-17 02:03 42.42226 -70.79339 36844 ft 542 kts 66°
2026-04-17 02:03 42.43696 -70.74624 36966 ft 544 kts 65°
2026-04-17 02:03 42.45196 -70.69935 37255 ft 542 kts 65°
2026-04-17 02:03 42.46715 -70.65265 37586 ft 540 kts 64°
2026-04-17 02:04 42.48228 -70.60642 37879 ft 539 kts 64°
2026-04-17 02:04 42.49744 -70.55984 38162 ft 538 kts 65°
2026-04-17 02:04 42.51253 -70.51315 38386 ft 539 kts 65°
2026-04-17 02:04 42.52749 -70.46651 38584 ft 539 kts 65°
2026-04-17 02:05 42.54238 -70.41995 38726 ft 539 kts 65°
2026-04-17 02:05 42.57208 -70.32707 38828 ft 540 kts 65°
2026-04-17 02:06 42.60773 -70.23811 38834 ft 534 kts 51°
2026-04-17 02:06 42.65485 -70.16157 38842 ft 524 kts 38°
2026-04-17 02:07 42.70834 -70.09415 38858 ft 523 kts 37°
2026-04-17 02:07 42.76222 -70.02722 38863 ft 524 kts 37°
2026-04-17 02:08 42.81576 -69.95968 38869 ft 525 kts 38°
2026-04-17 02:08 42.86880 -69.89192 38875 ft 526 kts 38°
2026-04-17 02:09 42.92216 -69.82342 38872 ft 526 kts 38°
2026-04-17 02:09 42.97539 -69.75497 38865 ft 525 kts 38°
2026-04-17 02:10 43.02858 -69.68645 38868 ft 524 kts 38°
2026-04-17 02:10 43.08147 -69.61816 38875 ft 523 kts 38°
2026-04-17 02:11 43.13400 -69.55018 38874 ft 522 kts 38°
2026-04-17 02:11 43.18668 -69.48183 38877 ft 521 kts 38°
2026-04-17 02:12 43.23923 -69.41349 38873 ft 520 kts 38°
2026-04-17 02:12 43.29170 -69.34507 38874 ft 520 kts 38°
2026-04-17 02:13 43.34409 -69.27658 38875 ft 520 kts 38°
2026-04-17 02:13 43.39660 -69.20777 38874 ft 520 kts 38°
2026-04-17 02:14 43.44898 -69.13895 38879 ft 521 kts 38°
2026-04-17 02:14 43.50110 -69.07031 38873 ft 521 kts 38°
2026-04-17 02:15 43.55343 -69.00120 38871 ft 520 kts 38°
2026-04-17 02:15 43.60561 -68.93211 38881 ft 520 kts 38°
2026-04-17 02:16 43.65784 -68.86280 38871 ft 520 kts 38°
2026-04-17 02:16 43.71002 -68.79337 38873 ft 520 kts 38°
2026-04-17 02:17 43.76188 -68.72420 38874 ft 521 kts 39°
2026-04-17 02:17 43.81402 -68.65447 38878 ft 521 kts 39°
2026-04-17 02:18 43.86617 -68.58455 38873 ft 522 kts 39°
2026-04-17 02:18 43.91837 -68.51438 38873 ft 522 kts 39°
2026-04-17 02:19 43.97054 -68.44405 38874 ft 522 kts 39°
2026-04-17 02:19 44.02238 -68.37401 38873 ft 522 kts 39°
2026-04-17 02:20 44.05881 -68.32468 38871 ft 522 kts 39°
2026-04-17 02:20 44.11080 -68.25411 38871 ft 522 kts 39°
2026-04-17 02:21 44.15433 -68.19489 38867 ft 521 kts 39°
2026-04-17 02:21 44.20594 -68.12452 38864 ft 521 kts 39°
2026-04-17 02:22 44.25768 -68.05378 38869 ft 521 kts 39°
2026-04-17 02:22 44.30946 -67.98281 38868 ft 521 kts 39°
2026-04-17 02:23 44.36111 -67.91183 38862 ft 521 kts 39°
2026-04-17 02:23 44.41274 -67.84068 38867 ft 521 kts 39°
2026-04-17 02:24 44.46440 -67.76931 38856 ft 521 kts 40°
2026-04-17 02:24 44.51567 -67.69830 38852 ft 522 kts 40°
2026-04-17 02:25 44.56730 -67.62658 38868 ft 522 kts 40°
2026-04-17 02:25 44.61895 -67.55465 38864 ft 523 kts 40°
2026-04-17 02:26 44.67054 -67.48263 38862 ft 523 kts 40°
2026-04-17 02:26 44.70675 -67.43196 38859 ft 524 kts 40°
2026-04-17 02:27 44.73781 -67.38841 38858 ft 524 kts 40°
2026-04-17 02:27 44.78924 -67.31614 38856 ft 524 kts 40°
2026-04-17 02:28 44.84130 -67.24279 38859 ft 524 kts 40°
2026-04-17 02:28 44.89258 -67.17033 38850 ft 525 kts 41°
2026-04-17 02:29 44.94056 -67.09231 38844 ft 529 kts 47°
2026-04-17 02:29 44.98644 -67.01095 38848 ft 529 kts 47°
2026-04-17 02:30 45.03211 -66.92949 38850 ft 528 kts 47°
2026-04-17 02:30 45.07795 -66.84835 38845 ft 528 kts 47°
2026-04-17 02:31 45.12394 -66.76716 38846 ft 528 kts 47°
2026-04-17 02:31 45.16984 -66.68599 38847 ft 528 kts 47°
2026-04-17 02:32 45.21571 -66.60458 38850 ft 528 kts 47°
2026-04-17 02:32 45.26132 -66.52334 38856 ft 528 kts 47°
2026-04-17 02:33 45.30710 -66.44156 38847 ft 529 kts 47°
2026-04-17 02:33 45.35296 -66.35943 38845 ft 530 kts 47°
2026-04-17 02:34 45.39874 -66.27718 38846 ft 531 kts 47°
2026-04-17 02:34 45.44438 -66.19494 38848 ft 532 kts 47°
2026-04-17 02:35 45.49027 -66.11201 38845 ft 532 kts 47°
2026-04-17 02:35 45.55901 -65.98732 38843 ft 532 kts 47°
2026-04-17 02:36 45.60440 -65.90468 38838 ft 531 kts 47°
2026-04-17 02:36 45.64990 -65.82159 38828 ft 530 kts 47°
2026-04-17 02:37 45.69526 -65.73852 38824 ft 528 kts 47°
2026-04-17 02:37 45.74037 -65.65568 38819 ft 527 kts 47°
2026-04-17 02:38 45.78535 -65.57283 38829 ft 526 kts 47°
2026-04-17 02:38 45.83001 -65.49034 38814 ft 526 kts 47°
2026-04-17 02:39 45.87480 -65.40736 38831 ft 526 kts 47°
2026-04-17 02:39 45.91961 -65.32410 38837 ft 527 kts 47°
2026-04-17 02:40 45.96449 -65.24045 38818 ft 528 kts 47°
2026-04-17 02:40 46.00929 -65.15670 38822 ft 528 kts 47°
2026-04-17 02:41 46.05377 -65.07329 38812 ft 528 kts 47°
2026-04-17 02:41 46.09846 -64.98926 38808 ft 529 kts 47°
2026-04-17 02:42 46.14318 -64.90488 38797 ft 529 kts 47°
2026-04-17 02:42 46.18780 -64.82046 38791 ft 529 kts 47°
2026-04-17 02:43 46.23236 -64.73590 38796 ft 528 kts 47°
2026-04-17 02:43 46.27655 -64.65181 38799 ft 528 kts 47°
2026-04-17 02:44 46.32098 -64.56699 38811 ft 528 kts 47°
2026-04-17 02:44 46.36531 -64.48210 38816 ft 529 kts 47°
2026-04-17 02:45 46.40937 -64.39746 38825 ft 529 kts 47°
2026-04-17 02:45 46.45369 -64.31207 38831 ft 529 kts 47°
2026-04-17 02:46 46.49792 -64.22659 38830 ft 529 kts 47°
2026-04-17 02:46 46.54212 -64.14092 38832 ft 529 kts 47°
2026-04-17 02:47 46.58598 -64.05562 38829 ft 530 kts 47°
2026-04-17 02:47 46.63008 -63.96961 38818 ft 530 kts 47°
2026-04-17 02:48 46.67416 -63.88337 38841 ft 530 kts 47°
2026-04-17 02:48 46.71820 -63.79694 38831 ft 530 kts 47°
2026-04-17 02:49 46.76189 -63.71093 38835 ft 531 kts 47°
2026-04-17 02:49 46.80584 -63.62413 38841 ft 532 kts 47°
2026-04-17 02:50 46.84986 -63.53694 38842 ft 533 kts 47°
2026-04-17 02:50 46.89380 -63.44962 38841 ft 533 kts 47°
2026-04-17 02:51 46.93755 -63.36239 38842 ft 534 kts 47°
2026-04-17 02:51 46.98142 -63.27467 38848 ft 534 kts 47°
2026-04-17 02:52 47.02507 -63.18708 38847 ft 534 kts 47°
2026-04-17 02:52 47.06889 -63.09889 38844 ft 534 kts 47°
2026-04-17 02:53 47.11268 -63.01047 38846 ft 534 kts 47°
2026-04-17 02:53 47.15608 -62.92258 38848 ft 533 kts 47°
2026-04-17 02:54 47.19959 -62.83416 38844 ft 533 kts 47°
2026-04-17 02:54 47.24300 -62.74566 38848 ft 533 kts 47°
2026-04-17 02:55 47.27677 -62.67664 38855 ft 532 kts 47°
2026-04-17 02:55 47.31624 -62.59574 38852 ft 533 kts 47°
2026-04-17 02:56 47.35945 -62.50690 38860 ft 533 kts 47°
2026-04-17 02:56 47.40239 -62.41834 38863 ft 534 kts 47°
2026-04-17 02:57 47.44556 -62.32901 38865 ft 535 kts 47°
2026-04-17 02:57 47.48874 -62.23935 38872 ft 536 kts 47°
2026-04-17 02:58 47.53195 -62.14933 38863 ft 536 kts 47°
2026-04-17 02:58 47.57508 -62.05919 38876 ft 537 kts 47°
2026-04-17 02:59 47.61830 -61.96858 38881 ft 538 kts 47°
2026-04-17 02:59 47.66115 -61.87843 38877 ft 538 kts 47°
2026-04-17 03:00 47.70425 -61.78747 38881 ft 538 kts 47°
2026-04-17 03:00 47.74725 -61.69639 38874 ft 538 kts 47°
2026-04-17 03:01 47.78930 -61.60704 38874 ft 538 kts 47°
2026-04-17 03:01 47.83211 -61.51578 38870 ft 538 kts 47°
2026-04-17 03:02 47.87485 -61.42437 38868 ft 537 kts 47°
2026-04-17 03:02 47.91751 -61.33283 38873 ft 537 kts 47°
2026-04-17 03:03 47.95978 -61.24183 38879 ft 537 kts 47°
2026-04-17 03:03 48.00237 -61.14982 38889 ft 537 kts 47°
2026-04-17 03:04 48.04484 -61.05777 38871 ft 538 kts 47°
2026-04-17 03:04 48.08727 -60.96549 38882 ft 538 kts 47°
2026-04-17 03:05 48.12931 -60.87373 38884 ft 538 kts 47°
2026-04-17 03:05 48.17158 -60.78115 38884 ft 538 kts 47°
2026-04-17 03:06 48.20662 -60.70417 38887 ft 538 kts 47°
2026-04-17 03:06 48.24878 -60.61127 38892 ft 538 kts 47°
2026-04-17 03:07 48.29082 -60.51834 38894 ft 538 kts 47°
2026-04-17 03:07 48.33279 -60.42523 38891 ft 538 kts 47°
2026-04-17 03:08 48.37471 -60.33187 38895 ft 538 kts 47°
2026-04-17 03:08 48.41633 -60.23888 38898 ft 538 kts 47°
2026-04-17 03:09 48.45811 -60.14524 38901 ft 538 kts 47°
2026-04-17 03:09 48.49982 -60.05140 38906 ft 539 kts 47°
2026-04-17 03:10 48.54146 -59.95740 38907 ft 539 kts 47°
2026-04-17 03:10 48.58304 -59.86320 38908 ft 539 kts 47°
2026-04-17 03:11 48.62458 -59.76878 38905 ft 539 kts 47°
2026-04-17 03:11 48.66594 -59.67441 38909 ft 538 kts 47°
2026-04-17 03:12 48.70728 -59.57978 38915 ft 538 kts 47°
2026-04-17 03:12 48.74822 -59.48573 38913 ft 538 kts 47°
2026-04-17 03:13 48.78935 -59.39089 38915 ft 538 kts 47°
2026-04-17 03:13 48.83040 -59.29594 38917 ft 537 kts 47°
2026-04-17 03:14 48.87128 -59.20102 38925 ft 536 kts 47°
2026-04-17 03:14 48.91206 -59.10600 38913 ft 536 kts 47°
2026-04-17 03:15 48.95268 -59.01101 38921 ft 535 kts 48°
2026-04-17 03:15 48.97951 -58.94810 38925 ft 535 kts 48°
2026-04-17 03:16 49.01648 -58.86116 38924 ft 534 kts 48°
2026-04-17 03:16 49.05681 -58.76598 38929 ft 534 kts 48°
2026-04-17 03:17 49.09700 -58.67083 38932 ft 533 kts 48°
2026-04-17 03:17 49.13711 -58.57549 38938 ft 533 kts 48°
2026-04-17 03:18 49.17712 -58.48008 38935 ft 532 kts 49°
2026-04-17 03:18 49.21696 -58.38469 38939 ft 531 kts 49°
2026-04-17 03:19 49.25669 -58.28926 38940 ft 531 kts 49°
2026-04-17 03:19 49.29595 -58.19460 38939 ft 530 kts 49°
2026-04-17 03:20 49.33533 -58.09933 38951 ft 528 kts 49°
2026-04-17 03:20 49.37460 -58.00396 38955 ft 528 kts 49°
2026-04-17 03:21 49.41371 -57.90863 38954 ft 526 kts 49°
2026-04-17 03:21 49.45260 -57.81353 38963 ft 525 kts 50°
2026-04-17 03:22 49.49112 -57.71899 38966 ft 524 kts 50°
2026-04-17 03:22 49.52968 -57.62400 38973 ft 523 kts 50°
2026-04-17 03:23 49.56815 -57.52890 38974 ft 522 kts 50°
2026-04-17 03:23 49.60643 -57.43391 38980 ft 521 kts 50°
2026-04-17 03:24 49.64460 -57.33888 38985 ft 520 kts 50°
2026-04-17 03:24 49.68265 -57.24379 38993 ft 520 kts 50°
2026-04-17 03:25 49.72057 -57.14869 38997 ft 520 kts 50°
2026-04-17 03:25 49.75816 -57.05408 39007 ft 519 kts 51°
2026-04-17 03:26 49.79612 -56.95818 39015 ft 519 kts 51°
2026-04-17 03:26 49.83353 -56.86332 39016 ft 519 kts 51°
2026-04-17 03:27 49.87103 -56.76790 39027 ft 518 kts 51°
2026-04-17 03:27 49.90850 -56.67219 39023 ft 518 kts 51°
2026-04-17 03:28 49.94586 -56.57642 39025 ft 518 kts 51°
2026-04-17 03:28 49.98307 -56.48069 39024 ft 518 kts 51°
2026-04-17 03:29 50.02026 -56.38468 39029 ft 518 kts 51°
2026-04-17 03:29 50.05709 -56.28922 39035 ft 518 kts 51°
2026-04-17 03:30 50.09413 -56.19288 39030 ft 519 kts 52°
2026-04-17 03:30 50.13114 -56.09625 39008 ft 519 kts 52°
2026-04-17 03:31 50.16802 -55.99959 39036 ft 519 kts 52°
2026-04-17 03:31 50.20489 -55.90259 39020 ft 519 kts 52°
2026-04-17 03:32 50.24168 -55.80546 39029 ft 519 kts 52°
2026-04-17 03:32 50.27833 -55.70833 39022 ft 519 kts 52°
2026-04-17 03:33 50.31492 -55.61097 39024 ft 519 kts 52°
2026-04-17 03:33 50.35117 -55.51418 39028 ft 518 kts 52°
2026-04-17 03:34 50.38755 -55.41667 39025 ft 518 kts 53°
2026-04-17 03:34 50.42384 -55.31902 39022 ft 517 kts 53°
2026-04-17 03:35 50.46000 -55.22137 39017 ft 517 kts 53°
2026-04-17 03:35 50.49589 -55.12409 39013 ft 517 kts 53°
2026-04-17 03:36 50.54995 -54.97686 39011 ft 517 kts 53°
2026-04-17 03:37 50.58581 -54.87872 39014 ft 518 kts 53°
2026-04-17 03:37 50.62143 -54.78086 39018 ft 518 kts 53°
2026-04-17 03:38 50.65717 -54.68230 39023 ft 518 kts 53°
2026-04-17 03:38 50.69290 -54.58339 39012 ft 519 kts 53°
2026-04-17 03:39 50.72856 -54.48428 39022 ft 519 kts 53°
2026-04-17 03:39 50.76413 -54.38502 39026 ft 519 kts 53°
2026-04-17 03:40 50.79966 -54.28550 39030 ft 520 kts 53°
2026-04-17 03:40 50.83516 -54.18568 39030 ft 520 kts 53°
2026-04-17 03:41 50.87033 -54.08641 39035 ft 520 kts 53°
2026-04-17 03:41 50.90562 -53.98638 39041 ft 520 kts 53°
2026-04-17 03:42 50.94089 -53.88603 39042 ft 521 kts 53°
2026-04-17 03:42 50.97605 -53.78560 39043 ft 521 kts 54°
2026-04-17 03:43 51.01118 -53.68484 39048 ft 521 kts 54°
2026-04-17 03:43 51.04600 -53.58460 39045 ft 521 kts 54°
2026-04-17 03:44 51.08096 -53.48352 39050 ft 522 kts 54°
2026-04-17 03:44 51.11517 -53.38423 39054 ft 522 kts 54°
2026-04-17 03:45 51.15006 -53.28258 39061 ft 523 kts 54°
2026-04-17 03:45 51.18298 -53.17862 39063 ft 527 kts 59°
2026-04-17 03:46 51.21235 -53.07133 39066 ft 529 kts 60°
2026-04-17 03:46 51.24110 -52.96411 39067 ft 529 kts 60°
2026-04-17 03:47 51.27025 -52.85617 39070 ft 529 kts 60°
2026-04-17 03:47 51.29949 -52.74835 39065 ft 529 kts 60°
2026-04-17 03:48 51.32868 -52.64038 39071 ft 528 kts 60°
2026-04-17 03:48 51.35777 -52.53225 39075 ft 528 kts 60°
2026-04-17 03:49 51.38671 -52.42407 39079 ft 528 kts 61°
2026-04-17 03:49 51.41411 -52.32113 39083 ft 528 kts 61°
2026-04-17 03:50 51.44284 -52.21271 39072 ft 529 kts 61°
2026-04-17 03:50 51.47151 -52.10403 39079 ft 528 kts 61°
2026-04-17 03:51 51.49527 -52.01357 39085 ft 529 kts 62°
2026-04-17 03:51 51.52377 -51.90457 39082 ft 529 kts 62°
2026-04-17 03:52 51.55674 -51.77782 39084 ft 529 kts 62°
2026-04-17 03:52 51.58047 -51.68618 39086 ft 530 kts 62°
2026-04-17 03:53 51.60853 -51.57730 39087 ft 530 kts 62°
2026-04-17 03:53 51.63687 -51.46680 39091 ft 530 kts 62°
2026-04-17 03:54 51.66475 -51.35752 39091 ft 530 kts 62°
2026-04-17 03:54 51.69264 -51.24770 39086 ft 530 kts 63°
2026-04-17 03:55 51.72046 -51.13762 39091 ft 530 kts 63°
2026-04-17 03:55 51.74819 -51.02739 39092 ft 530 kts 63°
2026-04-17 03:56 51.77569 -50.91751 39093 ft 530 kts 63°
2026-04-17 03:56 51.80320 -50.80699 39092 ft 530 kts 63°
2026-04-17 03:57 51.83067 -50.69615 39091 ft 530 kts 63°
2026-04-17 03:57 51.85798 -50.58536 39094 ft 530 kts 63°
2026-04-17 03:58 51.88515 -50.47458 39091 ft 530 kts 63°
2026-04-17 03:58 51.91208 -50.36421 39093 ft 530 kts 63°
2026-04-17 03:59 51.93909 -50.25298 39094 ft 530 kts 64°
2026-04-17 03:59 51.96605 -50.14142 39097 ft 530 kts 64°
2026-04-17 04:00 51.99112 -50.02849 39087 ft 534 kts 71°
2026-04-17 04:00 52.00491 -49.91021 39085 ft 540 kts 83°
2026-04-17 04:01 52.00980 -49.78862 39089 ft 541 kts 84°
2026-04-17 04:01 52.01386 -49.66657 39087 ft 540 kts 84°
2026-04-17 04:02 52.01819 -49.54540 39089 ft 540 kts 84°
2026-04-17 04:02 52.02282 -49.42278 39088 ft 540 kts 84°
2026-04-17 04:03 52.02736 -49.30196 39092 ft 539 kts 84°
2026-04-17 04:03 52.03177 -49.18057 39105 ft 539 kts 84°
2026-04-17 04:04 52.03603 -49.05893 39092 ft 539 kts 84°
2026-04-17 04:04 52.04015 -48.93729 39093 ft 539 kts 84°
2026-04-17 04:05 52.04414 -48.81578 39096 ft 538 kts 84°
2026-04-17 04:05 52.04798 -48.69490 39092 ft 538 kts 85°
2026-04-17 04:06 52.05172 -48.57364 39090 ft 537 kts 85°
2026-04-17 04:06 52.05534 -48.45227 39093 ft 537 kts 85°
2026-04-17 04:07 52.05880 -48.33161 39086 ft 537 kts 85°
2026-04-17 04:07 52.06216 -48.21067 39093 ft 537 kts 85°
2026-04-17 04:08 52.06540 -48.08924 39087 ft 536 kts 85°
2026-04-17 04:08 52.06851 -47.96792 39094 ft 536 kts 85°
2026-04-17 04:09 52.07149 -47.84691 39089 ft 536 kts 85°
2026-04-17 04:09 52.07435 -47.72589 39090 ft 536 kts 85°
2026-04-17 04:10 52.07706 -47.60577 39087 ft 535 kts 85°
2026-04-17 04:10 52.07968 -47.48432 39087 ft 535 kts 85°
2026-04-17 04:11 52.08217 -47.36349 39085 ft 535 kts 85°
2026-04-17 04:11 52.08452 -47.24254 39090 ft 535 kts 86°
2026-04-17 04:12 52.08676 -47.12170 39086 ft 534 kts 86°
2026-04-17 04:12 52.08885 -47.00164 39088 ft 534 kts 86°
2026-04-17 04:13 52.09084 -46.88087 39082 ft 534 kts 86°
2026-04-17 04:13 52.09270 -46.76023 39085 ft 533 kts 86°
2026-04-17 04:14 52.09444 -46.63966 39081 ft 533 kts 86°
2026-04-17 04:14 52.09605 -46.51933 39086 ft 533 kts 86°
2026-04-17 04:15 52.09754 -46.39854 39081 ft 532 kts 86°
2026-04-17 04:15 52.09890 -46.27890 39081 ft 532 kts 86°
2026-04-17 04:16 52.10014 -46.15863 39085 ft 531 kts 87°
2026-04-17 04:16 52.10126 -46.03856 39083 ft 531 kts 87°
2026-04-17 04:17 52.10225 -45.91814 39080 ft 531 kts 87°
2026-04-17 04:17 52.10313 -45.79797 39080 ft 531 kts 87°
2026-04-17 04:18 52.10387 -45.67865 39080 ft 530 kts 87°
2026-04-17 04:18 52.10450 -45.55888 39081 ft 530 kts 87°
2026-04-17 04:19 52.10501 -45.43917 39076 ft 529 kts 88°
2026-04-17 04:19 52.10540 -45.31953 39081 ft 529 kts 88°
2026-04-17 04:20 52.10566 -45.19998 39079 ft 529 kts 88°
2026-04-17 04:20 52.10580 -45.08033 39079 ft 528 kts 88°
2026-04-17 04:21 52.10583 -44.96005 39078 ft 528 kts 88°
2026-04-17 04:21 52.10573 -44.84137 39072 ft 528 kts 88°
2026-04-17 04:22 52.10551 -44.72173 39072 ft 527 kts 88°
2026-04-17 04:22 52.10517 -44.60359 39076 ft 527 kts 88°
2026-04-17 04:23 52.10471 -44.48393 39074 ft 527 kts 89°
2026-04-17 04:23 52.10413 -44.36473 39068 ft 526 kts 89°
2026-04-17 04:24 52.10344 -44.24555 39076 ft 526 kts 89°
2026-04-17 04:24 52.10262 -44.12722 39076 ft 526 kts 89°
2026-04-17 04:25 52.10169 -44.00846 39077 ft 526 kts 89°
2026-04-17 04:25 52.10063 -43.88933 39069 ft 526 kts 89°
2026-04-17 04:26 52.09945 -43.77040 39069 ft 525 kts 89°
2026-04-17 04:26 52.09816 -43.65155 39084 ft 525 kts 89°
2026-04-17 04:27 52.09675 -43.53331 39063 ft 525 kts 89°
2026-04-17 04:27 52.09522 -43.41479 39073 ft 524 kts 90°
2026-04-17 04:28 52.09358 -43.29630 39068 ft 524 kts 90°
2026-04-17 04:28 52.09180 -43.17746 39015 ft 526 kts 89°
2026-04-17 04:29 52.08992 -43.05861 39066 ft 532 kts 90°
2026-04-17 04:29 52.08788 -42.93768 39070 ft 536 kts 90°
2026-04-17 04:30 52.08570 -42.81659 39069 ft 537 kts 90°
2026-04-17 04:30 52.08339 -42.69588 39051 ft 528 kts 90°
2026-04-17 04:31 52.08100 -42.57639 39068 ft 528 kts 90°
2026-04-17 04:31 52.07850 -42.45705 39070 ft 529 kts 90°
2026-04-17 04:32 52.07588 -42.33782 39065 ft 530 kts 90°
2026-04-17 04:32 52.07310 -42.21711 39061 ft 531 kts 90°
2026-04-17 04:33 52.07021 -42.09724 39062 ft 530 kts 90°
2026-04-17 04:33 52.06723 -41.97829 39060 ft 529 kts 91°
2026-04-17 04:34 52.06251 -41.79913 39057 ft 528 kts 91°
2026-04-17 04:34 52.05921 -41.67972 39058 ft 528 kts 91°
2026-04-17 04:35 52.05580 -41.56065 39059 ft 527 kts 91°
2026-04-17 04:35 52.05228 -41.44164 39058 ft 528 kts 91°
2026-04-17 04:36 52.04862 -41.32221 39059 ft 528 kts 91°
2026-04-17 04:36 52.04487 -41.20376 39060 ft 528 kts 91°
2026-04-17 04:37 52.04100 -41.08539 39060 ft 528 kts 91°
2026-04-17 04:37 52.03765 -40.98565 39059 ft 527 kts 91°
2026-04-17 04:38 52.03354 -40.86662 39057 ft 527 kts 92°
2026-04-17 04:38 52.02932 -40.74775 39061 ft 527 kts 92°
2026-04-17 04:39 52.02498 -40.62923 39059 ft 527 kts 92°
2026-04-17 04:39 52.02052 -40.51028 39058 ft 527 kts 92°
2026-04-17 04:40 52.01597 -40.39226 39059 ft 526 kts 92°
2026-04-17 04:40 52.01127 -40.27361 39057 ft 526 kts 92°
2026-04-17 04:41 52.00645 -40.15473 39060 ft 526 kts 92°
2026-04-17 04:41 52.00156 -40.03644 39058 ft 525 kts 92°
2026-04-17 04:42 52.00224 -39.91815 39069 ft 523 kts 84°
2026-04-17 04:42 52.00751 -39.80046 39061 ft 523 kts 83°
2026-04-17 04:43 52.01282 -39.68300 39058 ft 523 kts 84°
2026-04-17 04:43 52.01768 -39.56487 39058 ft 523 kts 84°
2026-04-17 04:44 52.02216 -39.44751 39060 ft 523 kts 84°
2026-04-17 04:44 52.02652 -39.32942 39212 ft 525 kts 84°
2026-04-17 04:45 52.02863 -39.27111 39473 ft 523 kts 84°
2026-04-17 04:45 52.03076 -39.21145 39733 ft 521 kts 85°
2026-04-17 04:45 52.03284 -39.15279 39971 ft 520 kts 85°
2026-04-17 04:45 52.03489 -39.09418 40156 ft 521 kts 85°
2026-04-17 04:46 52.03693 -39.03518 40343 ft 520 kts 85°
2026-04-17 04:46 52.03892 -38.97652 40537 ft 520 kts 85°
2026-04-17 04:46 52.04088 -38.91818 40725 ft 520 kts 85°
2026-04-17 04:46 52.04281 -38.85967 40909 ft 520 kts 85°
2026-04-17 04:47 52.04659 -38.74225 41034 ft 521 kts 85°
2026-04-17 04:47 52.05027 -38.62446 41051 ft 521 kts 86°
2026-04-17 04:48 52.05382 -38.50697 41058 ft 520 kts 86°
2026-04-17 04:48 52.05725 -38.38933 41057 ft 520 kts 86°
2026-04-17 04:49 52.06056 -38.27196 41059 ft 519 kts 86°
2026-04-17 04:49 52.06375 -38.15497 41060 ft 519 kts 86°
2026-04-17 04:50 52.06681 -38.03825 41061 ft 518 kts 86°
2026-04-17 04:50 52.06977 -37.92113 41058 ft 518 kts 86°
2026-04-17 04:51 52.07261 -37.80402 41060 ft 518 kts 86°
2026-04-17 04:51 52.07533 -37.68704 41061 ft 518 kts 86°
2026-04-17 04:52 52.07794 -37.56986 41061 ft 518 kts 86°
2026-04-17 04:52 52.08042 -37.45285 41062 ft 518 kts 87°
2026-04-17 04:53 52.08280 -37.33594 41059 ft 518 kts 87°
2026-04-17 04:55 52.09111 -36.86861 41068 ft 517 kts 87°
2026-04-17 04:55 52.09289 -36.75238 41063 ft 517 kts 87°
2026-04-17 04:56 52.09457 -36.63553 41063 ft 517 kts 88°
2026-04-17 04:56 52.09614 -36.51815 41062 ft 517 kts 88°
2026-04-17 04:57 52.09758 -36.40101 41066 ft 517 kts 88°
2026-04-17 04:57 52.09890 -36.28473 41072 ft 517 kts 88°
2026-04-17 04:58 52.10013 -36.16682 41067 ft 517 kts 88°
2026-04-17 04:58 52.10122 -36.05039 41067 ft 517 kts 88°
2026-04-17 04:59 52.10220 -35.93324 41070 ft 517 kts 88°
2026-04-17 04:59 52.10306 -35.81696 41067 ft 517 kts 88°
2026-04-17 05:00 52.10382 -35.69987 41067 ft 517 kts 88°
2026-04-17 05:00 52.10445 -35.58298 41069 ft 517 kts 88°
2026-04-17 05:01 52.10497 -35.46583 41071 ft 517 kts 88°
2026-04-17 05:01 52.10537 -35.34867 41077 ft 517 kts 89°
2026-04-17 05:02 52.10566 -35.23179 41075 ft 517 kts 89°
2026-04-17 05:02 52.10583 -35.11496 41067 ft 517 kts 89°
2026-04-17 05:03 52.10589 -34.99748 41068 ft 517 kts 89°
2026-04-17 05:03 52.10583 -34.88057 41081 ft 517 kts 89°
2026-04-17 05:04 52.10565 -34.76445 41072 ft 517 kts 89°
2026-04-17 05:04 52.10536 -34.64745 41067 ft 517 kts 89°
2026-04-17 05:05 52.10496 -34.53037 41074 ft 516 kts 89°
2026-04-17 05:05 52.10444 -34.41411 41064 ft 516 kts 89°
2026-04-17 05:06 52.10380 -34.29746 41066 ft 516 kts 89°
2026-04-17 05:06 52.10305 -34.18062 41067 ft 516 kts 89°
2026-04-17 05:07 52.10218 -34.06378 41069 ft 516 kts 90°
2026-04-17 05:07 52.10120 -33.94696 41069 ft 516 kts 90°
2026-04-17 05:08 52.10010 -33.83026 41067 ft 516 kts 90°
2026-04-17 05:08 52.09889 -33.71354 41071 ft 516 kts 90°
2026-04-17 05:09 52.09756 -33.59679 41064 ft 516 kts 90°
2026-04-17 05:09 52.09613 -33.48082 41061 ft 516 kts 90°
2026-04-17 05:10 52.09457 -33.36412 41072 ft 516 kts 90°
2026-04-17 05:10 52.09290 -33.24742 41078 ft 516 kts 90°
2026-04-17 05:11 52.09111 -33.13061 41073 ft 516 kts 90°
2026-04-17 05:11 52.08921 -33.01407 41065 ft 516 kts 90°
2026-04-17 05:12 52.08719 -32.89729 41074 ft 516 kts 91°
2026-04-17 05:12 52.08505 -32.78062 41072 ft 516 kts 91°
2026-04-17 05:13 52.08280 -32.66384 41068 ft 516 kts 91°
2026-04-17 05:13 52.08045 -32.54793 41069 ft 516 kts 91°
2026-04-17 05:14 52.07797 -32.43113 41071 ft 516 kts 91°
2026-04-17 05:14 52.07537 -32.31451 41074 ft 516 kts 91°
2026-04-17 05:15 52.07267 -32.19804 41073 ft 516 kts 91°
2026-04-17 05:15 52.06985 -32.08151 41069 ft 516 kts 91°
2026-04-17 05:16 52.06691 -31.96511 41069 ft 516 kts 92°
2026-04-17 05:16 52.06388 -31.84936 41071 ft 515 kts 92°
2026-04-17 05:17 52.06072 -31.73297 41066 ft 515 kts 92°
2026-04-17 05:17 52.05743 -31.61641 41067 ft 515 kts 92°
2026-04-17 05:18 52.05404 -31.50002 41072 ft 515 kts 92°
2026-04-17 05:18 52.05053 -31.38367 41069 ft 515 kts 92°
2026-04-17 05:19 52.04693 -31.26795 41058 ft 515 kts 92°
2026-04-17 05:19 52.04319 -31.15155 41053 ft 516 kts 92°
2026-04-17 05:20 52.03933 -31.03507 41050 ft 516 kts 92°
2026-04-17 05:20 52.03537 -30.91880 41058 ft 516 kts 93°
2026-04-17 05:21 52.03130 -30.80301 41053 ft 516 kts 93°
2026-04-17 05:21 52.02710 -30.68652 41056 ft 516 kts 93°
2026-04-17 05:22 52.02352 -30.58983 41054 ft 516 kts 93°
2026-04-17 05:22 52.01912 -30.47364 41057 ft 516 kts 93°
2026-04-17 05:23 52.01459 -30.35713 41058 ft 516 kts 93°
2026-04-17 05:23 52.00996 -30.24086 41048 ft 516 kts 94°
2026-04-17 05:24 52.00522 -30.12462 41051 ft 516 kts 94°
2026-04-17 05:24 52.00068 -30.00824 41058 ft 516 kts 91°
2026-04-17 05:25 52.00329 -29.89276 41054 ft 515 kts 85°
2026-04-17 05:25 52.00862 -29.77672 41052 ft 515 kts 85°
2026-04-17 05:26 52.01378 -29.66063 41055 ft 516 kts 85°
2026-04-17 05:26 52.01848 -29.54429 41052 ft 516 kts 86°
2026-04-17 05:27 52.02289 -29.42801 41047 ft 516 kts 86°
2026-04-17 05:27 52.02716 -29.31163 41048 ft 516 kts 86°
2026-04-17 05:28 52.03132 -29.19602 41048 ft 516 kts 86°
2026-04-17 05:28 52.03540 -29.07954 41051 ft 516 kts 86°
2026-04-17 05:29 52.03938 -28.96310 41048 ft 516 kts 86°
2026-04-17 05:29 52.04321 -28.84743 41046 ft 516 kts 86°
2026-04-17 05:30 52.04695 -28.73109 41044 ft 515 kts 86°
2026-04-17 05:30 52.05057 -28.61474 41042 ft 515 kts 86°
2026-04-17 05:31 52.05408 -28.49833 41042 ft 515 kts 87°
2026-04-17 05:31 52.05747 -28.38198 41040 ft 515 kts 87°
2026-04-17 05:32 52.06075 -28.26557 41037 ft 515 kts 87°
2026-04-17 05:32 52.06388 -28.15014 41040 ft 515 kts 87°
2026-04-17 05:33 52.06693 -28.03366 41037 ft 515 kts 87°
2026-04-17 05:33 52.06987 -27.91734 41031 ft 515 kts 88°
2026-04-17 05:34 52.07269 -27.80087 41037 ft 515 kts 88°
2026-04-17 05:34 52.07537 -27.68517 41032 ft 515 kts 88°
2026-04-17 05:35 52.07797 -27.56868 41030 ft 515 kts 88°
2026-04-17 05:35 52.08044 -27.45244 41029 ft 515 kts 88°
2026-04-17 05:36 52.08280 -27.33598 41026 ft 515 kts 88°
2026-04-17 05:36 52.08503 -27.22027 41022 ft 515 kts 88°
2026-04-17 05:37 52.08715 -27.10411 41023 ft 515 kts 88°
2026-04-17 05:37 52.08917 -26.98754 41016 ft 514 kts 88°
2026-04-17 05:38 52.09107 -26.87122 41017 ft 514 kts 89°
2026-04-17 05:38 52.09285 -26.75554 41016 ft 514 kts 89°
2026-04-17 05:39 52.09452 -26.63904 41014 ft 514 kts 89°
2026-04-17 05:39 52.09608 -26.52267 41012 ft 514 kts 89°
2026-04-17 05:40 52.09752 -26.40618 41010 ft 514 kts 89°
2026-04-17 05:40 52.09885 -26.28989 41010 ft 514 kts 89°
2026-04-17 05:41 52.10006 -26.17361 41005 ft 514 kts 89°
2026-04-17 05:41 52.10116 -26.05737 41007 ft 514 kts 89°
2026-04-17 05:42 52.10214 -25.94113 41002 ft 514 kts 89°
2026-04-17 05:42 52.10301 -25.82558 41003 ft 514 kts 89°
2026-04-17 05:43 52.10376 -25.70929 40999 ft 514 kts 90°
2026-04-17 05:43 52.10440 -25.59281 40995 ft 514 kts 90°
2026-04-17 05:44 52.10493 -25.47648 40991 ft 514 kts 90°
2026-04-17 05:44 52.10534 -25.36076 40990 ft 515 kts 90°
2026-04-17 05:45 52.10564 -25.24426 40987 ft 515 kts 90°
2026-04-17 05:45 52.10582 -25.12773 40981 ft 514 kts 90°
2026-04-17 05:46 52.10589 -25.01132 40983 ft 514 kts 90°
2026-04-17 05:46 52.10584 -24.89489 40977 ft 514 kts 90°
2026-04-17 05:47 52.10568 -24.77942 40973 ft 513 kts 90°
2026-04-17 05:47 52.10541 -24.66333 40970 ft 512 kts 91°
2026-04-17 05:48 52.10502 -24.54715 40971 ft 512 kts 91°
2026-04-17 05:48 52.10453 -24.43367 40970 ft 512 kts 91°
2026-04-17 05:49 52.10395 -24.32257 40963 ft 513 kts 91°
2026-04-17 05:49 52.10322 -24.20631 40961 ft 514 kts 91°
2026-04-17 05:50 52.10239 -24.09017 40960 ft 514 kts 91°
2026-04-17 05:50 52.10144 -23.97367 40954 ft 515 kts 91°
2026-04-17 05:51 52.10037 -23.85688 40952 ft 516 kts 92°
2026-04-17 05:51 52.09919 -23.74100 40942 ft 516 kts 92°
2026-04-17 05:52 52.09788 -23.62414 40943 ft 517 kts 92°
2026-04-17 05:52 52.09647 -23.50717 40939 ft 517 kts 92°
2026-04-17 05:53 52.09494 -23.39055 40928 ft 514 kts 92°
2026-04-17 05:53 52.09330 -23.27461 40920 ft 510 kts 92°
2026-04-17 05:54 52.09158 -23.16026 40928 ft 503 kts 92°
2026-04-17 05:54 52.08975 -23.04652 40935 ft 507 kts 93°
2026-04-17 05:55 52.08781 -22.93223 40926 ft 504 kts 93°
2026-04-17 05:55 52.08574 -22.81782 40917 ft 506 kts 93°
2026-04-17 05:56 52.08358 -22.70372 40914 ft 505 kts 93°
2026-04-17 05:56 52.08131 -22.58974 40913 ft 505 kts 93°
2026-04-17 05:57 52.07895 -22.47647 40902 ft 504 kts 94°
2026-04-17 05:57 52.07646 -22.36257 40907 ft 505 kts 94°
2026-04-17 05:58 52.07385 -22.24840 40894 ft 504 kts 94°
2026-04-17 05:59 52.06975 -22.07717 40901 ft 507 kts 94°
2026-04-17 05:59 52.06686 -21.96286 40886 ft 505 kts 94°
2026-04-17 06:00 52.06389 -21.84938 40884 ft 501 kts 94°
2026-04-17 06:00 52.06084 -21.73697 40884 ft 503 kts 94°
2026-04-17 06:01 52.05761 -21.62269 40882 ft 506 kts 94°
2026-04-17 06:01 52.05432 -21.50917 40875 ft 503 kts 95°
2026-04-17 06:02 52.05087 -21.39488 40879 ft 508 kts 95°
2026-04-17 06:02 52.04739 -21.28219 40858 ft 500 kts 95°
2026-04-17 06:03 52.04374 -21.16866 40872 ft 506 kts 95°
2026-04-17 06:03 52.03997 -21.05444 40857 ft 505 kts 95°
2026-04-17 06:04 52.03613 -20.94081 40850 ft 501 kts 95°
2026-04-17 06:04 52.03215 -20.82717 40863 ft 505 kts 95°
2026-04-17 06:05 52.02807 -20.71351 40850 ft 507 kts 95°
2026-04-17 06:05 52.02391 -20.59985 40844 ft 502 kts 96°
2026-04-17 06:06 52.01959 -20.48595 40852 ft 507 kts 95°
2026-04-17 06:06 52.01518 -20.37209 40834 ft 503 kts 96°
2026-04-17 06:07 52.01066 -20.25827 40837 ft 506 kts 96°
2026-04-17 06:07 52.00607 -20.14554 40831 ft 504 kts 96°
2026-04-17 06:08 52.00134 -20.03147 40826 ft 506 kts 96°
2026-04-17 06:08 52.00072 -19.91727 40812 ft 505 kts 90°
2026-04-17 06:09 52.00336 -19.80311 40814 ft 505 kts 89°
2026-04-17 06:09 52.00600 -19.68979 40818 ft 504 kts 90°
2026-04-17 06:10 52.00824 -19.57571 40807 ft 503 kts 90°
2026-04-17 06:10 52.01017 -19.46234 40806 ft 507 kts 90°
2026-04-17 06:11 52.01170 -19.36651 40790 ft 504 kts 90°
2026-04-17 06:11 52.01344 -19.25312 40793 ft 505 kts 90°
2026-04-17 06:12 52.01507 -19.13921 40789 ft 504 kts 90°
2026-04-17 06:12 52.01660 -19.02538 40783 ft 505 kts 91°
2026-04-17 06:13 52.01810 -18.91139 40779 ft 505 kts 90°
2026-04-17 06:13 52.01957 -18.79738 40779 ft 505 kts 91°
2026-04-17 06:14 52.02097 -18.68301 40782 ft 508 kts 91°
2026-04-17 06:14 52.02230 -18.56782 40780 ft 513 kts 91°
2026-04-17 06:15 52.02355 -18.45201 40778 ft 518 kts 91°
2026-04-17 06:15 52.02474 -18.33477 40768 ft 520 kts 91°
2026-04-17 06:16 52.02586 -18.21785 40757 ft 517 kts 91°
2026-04-17 06:16 52.02692 -18.10185 40752 ft 508 kts 91°
2026-04-17 06:17 52.02793 -17.98707 40761 ft 508 kts 91°
2026-04-17 06:17 52.02888 -17.87211 40763 ft 509 kts 91°
2026-04-17 06:18 52.02975 -17.75769 40761 ft 510 kts 91°
2026-04-17 06:18 52.03058 -17.64238 40755 ft 511 kts 91°
2026-04-17 06:19 52.03137 -17.52684 40759 ft 511 kts 91°
2026-04-17 06:19 52.03213 -17.41125 40759 ft 512 kts 91°
2026-04-17 06:20 52.03286 -17.29568 40756 ft 512 kts 91°
2026-04-17 06:20 52.03356 -17.18088 40747 ft 512 kts 91°
2026-04-17 06:21 52.03426 -17.06504 40755 ft 512 kts 91°
2026-04-17 06:21 52.03493 -16.94929 40753 ft 511 kts 91°
2026-04-17 06:22 52.03558 -16.83393 40746 ft 511 kts 91°
2026-04-17 06:22 52.03622 -16.71821 40748 ft 511 kts 91°
2026-04-17 06:23 52.03685 -16.60285 40752 ft 511 kts 91°
2026-04-17 06:23 52.03747 -16.48807 40752 ft 511 kts 91°
2026-04-17 06:24 52.03810 -16.37263 40754 ft 511 kts 92°
2026-04-17 06:24 52.03871 -16.25719 40752 ft 511 kts 92°
2026-04-17 06:25 52.03933 -16.14163 40750 ft 512 kts 92°
2026-04-17 06:25 52.03996 -16.02603 40748 ft 512 kts 92°
2026-04-17 06:26 52.04060 -15.91053 40750 ft 512 kts 92°
2026-04-17 06:26 52.04124 -15.79465 40749 ft 512 kts 92°
2026-04-17 06:27 52.04187 -15.67858 40749 ft 513 kts 92°
2026-04-17 06:27 52.04250 -15.56265 40751 ft 513 kts 92°
2026-04-17 06:28 52.04313 -15.44751 40749 ft 513 kts 92°
2026-04-17 06:28 52.04375 -15.33138 40751 ft 514 kts 92°
2026-04-17 06:29 52.04436 -15.21523 40753 ft 514 kts 92°
2026-04-17 06:29 52.04497 -15.09891 40753 ft 514 kts 92°
2026-04-17 06:30 52.04557 -14.98265 40752 ft 514 kts 92°
2026-04-17 06:30 52.04616 -14.86724 40751 ft 514 kts 92°
2026-04-17 06:31 52.04676 -14.75099 40751 ft 514 kts 92°
2026-04-17 06:31 52.04734 -14.63472 40754 ft 515 kts 92°
2026-04-17 06:32 52.04792 -14.51825 40755 ft 515 kts 92°
2026-04-17 06:32 52.04849 -14.40188 40755 ft 515 kts 92°
2026-04-17 06:33 52.04906 -14.28648 40758 ft 515 kts 92°
2026-04-17 06:33 52.04963 -14.16986 40757 ft 515 kts 92°
2026-04-17 06:34 52.05018 -14.05325 40760 ft 515 kts 92°
2026-04-17 06:34 52.05070 -13.93687 40759 ft 515 kts 92°
2026-04-17 06:35 52.05121 -13.82023 40760 ft 515 kts 92°
2026-04-17 06:35 52.05170 -13.70452 40761 ft 515 kts 93°
2026-04-17 06:36 52.05218 -13.58790 40772 ft 515 kts 93°
2026-04-17 06:36 52.05266 -13.47133 40761 ft 515 kts 93°
2026-04-17 06:37 52.05313 -13.35540 40766 ft 516 kts 93°
2026-04-17 06:37 52.05359 -13.23882 40771 ft 516 kts 93°
2026-04-17 06:38 52.05404 -13.12223 40763 ft 516 kts 93°
2026-04-17 06:38 52.05448 -13.00553 40775 ft 516 kts 93°
2026-04-17 06:39 52.05489 -12.88881 40771 ft 516 kts 93°
2026-04-17 06:39 52.05298 -12.77256 40783 ft 513 kts 98°
2026-04-17 06:40 52.04720 -12.65772 40775 ft 513 kts 99°
2026-04-17 06:40 52.04083 -12.54205 40782 ft 513 kts 99°
2026-04-17 06:41 52.03431 -12.42654 40784 ft 513 kts 99°
2026-04-17 06:41 52.02770 -12.31110 40791 ft 513 kts 99°
2026-04-17 06:42 52.02107 -12.19571 40789 ft 513 kts 99°
2026-04-17 06:42 52.01444 -12.08097 40794 ft 513 kts 99°
2026-04-17 06:43 52.00774 -11.96554 40799 ft 513 kts 99°
2026-04-17 06:43 52.00103 -11.85017 40801 ft 513 kts 99°
2026-04-17 06:44 51.99428 -11.73469 40802 ft 513 kts 99°
2026-04-17 06:44 51.98753 -11.61948 40807 ft 513 kts 99°
2026-04-17 06:45 51.98074 -11.50419 40811 ft 513 kts 99°
2026-04-17 06:45 51.97394 -11.38906 40813 ft 513 kts 99°
2026-04-17 06:46 51.96713 -11.27440 40817 ft 513 kts 99°
2026-04-17 06:46 51.96027 -11.15928 40818 ft 513 kts 99°
2026-04-17 06:47 51.95337 -11.04420 40826 ft 512 kts 99°
2026-04-17 06:47 51.94642 -10.92912 40827 ft 512 kts 100°
2026-04-17 06:48 51.93945 -10.81418 40846 ft 512 kts 100°
2026-04-17 06:48 51.93245 -10.69932 40837 ft 512 kts 100°
2026-04-17 06:49 51.92543 -10.58505 40843 ft 512 kts 100°
2026-04-17 06:49 51.91833 -10.47013 40847 ft 512 kts 100°
2026-04-17 06:50 51.91119 -10.35514 40851 ft 512 kts 100°
2026-04-17 06:50 51.90398 -10.24041 40856 ft 510 kts 101°
2026-04-17 06:50 51.89614 -10.18528 40861 ft 499 kts 115°
2026-04-17 06:51 51.88282 -10.13362 40863 ft 495 kts 121°
2026-04-17 06:51 51.85359 -10.03251 40852 ft 499 kts 116°
2026-04-17 06:52 51.83521 -9.92395 40868 ft 509 kts 104°
2026-04-17 06:52 51.82677 -9.80975 40881 ft 514 kts 99°
2026-04-17 06:53 51.82133 -9.69418 40878 ft 515 kts 98°
2026-04-17 06:53 51.81539 -9.57885 40885 ft 515 kts 99°
2026-04-17 06:54 51.80855 -9.46335 40875 ft 516 kts 100°
2026-04-17 06:54 51.80132 -9.34828 40892 ft 515 kts 100°
2026-04-17 06:55 51.79398 -9.23351 40886 ft 515 kts 100°
2026-04-17 06:55 51.78657 -9.11838 40893 ft 515 kts 100°
2026-04-17 06:56 51.77908 -9.00334 40899 ft 515 kts 101°
2026-04-17 06:56 51.77148 -8.88844 40897 ft 514 kts 101°
2026-04-17 06:57 51.76381 -8.77427 40885 ft 514 kts 101°
2026-04-17 06:57 51.75599 -8.65960 40887 ft 513 kts 101°
2026-04-17 06:58 51.74942 -8.56439 40884 ft 513 kts 101°
2026-04-17 06:58 51.74140 -8.44985 40882 ft 513 kts 101°
2026-04-17 06:59 51.73327 -8.33552 40886 ft 513 kts 101°
2026-04-17 06:59 51.72504 -8.22113 40891 ft 513 kts 101°
2026-04-17 07:00 51.71671 -8.10698 40910 ft 512 kts 101°
2026-04-17 07:00 51.70827 -7.99281 40915 ft 512 kts 101°
2026-04-17 07:01 51.69971 -7.87867 40923 ft 512 kts 101°
2026-04-17 07:01 51.69110 -7.76538 40933 ft 512 kts 102°
2026-04-17 07:02 51.68233 -7.65141 40933 ft 512 kts 102°
2026-04-17 07:02 51.67343 -7.53723 40935 ft 512 kts 102°
2026-04-17 07:03 51.66444 -7.42342 40944 ft 512 kts 102°
2026-04-17 07:03 51.65534 -7.30959 40957 ft 512 kts 102°
2026-04-17 07:04 51.64619 -7.19653 40954 ft 512 kts 102°
2026-04-17 07:04 51.63687 -7.08275 40957 ft 512 kts 102°
2026-04-17 07:05 51.62745 -6.96907 40959 ft 512 kts 102°
2026-04-17 07:05 51.61722 -6.85552 40970 ft 509 kts 106°
2026-04-17 07:06 51.60058 -6.74595 40971 ft 507 kts 109°
2026-04-17 07:06 51.58252 -6.63613 40972 ft 507 kts 110°
2026-04-17 07:07 51.56465 -6.52649 40975 ft 507 kts 109°
2026-04-17 07:07 51.54695 -6.41664 40981 ft 508 kts 109°
2026-04-17 07:08 51.52928 -6.30714 40979 ft 508 kts 109°
2026-04-17 07:08 51.51142 -6.19719 40988 ft 508 kts 109°
2026-04-17 07:09 51.49345 -6.08749 40988 ft 508 kts 109°
2026-04-17 07:09 51.47535 -5.97765 40988 ft 507 kts 109°
2026-04-17 07:10 51.45736 -5.86925 40987 ft 506 kts 109°
2026-04-17 07:10 51.43912 -5.76002 41003 ft 506 kts 109°
2026-04-17 07:11 51.42083 -5.65123 41010 ft 506 kts 110°
2026-04-17 07:11 51.40243 -5.54239 41007 ft 506 kts 110°
2026-04-17 07:12 51.38392 -5.43363 41014 ft 506 kts 110°
2026-04-17 07:12 51.36545 -5.32576 41021 ft 506 kts 110°
2026-04-17 07:13 51.34675 -5.21714 41019 ft 506 kts 110°
2026-04-17 07:13 51.32794 -5.10850 41021 ft 507 kts 110°
2026-04-17 07:14 51.31096 -4.99908 41029 ft 510 kts 103°
2026-04-17 07:14 51.30161 -4.88621 41030 ft 511 kts 101°
2026-04-17 07:15 51.29311 -4.77396 41044 ft 511 kts 101°
2026-04-17 07:15 51.28417 -4.66134 41049 ft 512 kts 101°
2026-04-17 07:16 51.27481 -4.54859 41051 ft 512 kts 101°
2026-04-17 07:16 51.26526 -4.43603 41045 ft 512 kts 101°
2026-04-17 07:17 51.25561 -4.32341 41052 ft 511 kts 101°
2026-04-17 07:17 51.24100 -4.15493 41065 ft 510 kts 101°
2026-04-17 07:18 51.23114 -4.04283 41071 ft 510 kts 101°
2026-04-17 07:18 51.22119 -3.93093 41079 ft 510 kts 101°
2026-04-17 07:19 51.21112 -3.81901 41086 ft 510 kts 102°
2026-04-17 07:19 51.20095 -3.70711 41098 ft 510 kts 102°
2026-04-17 07:20 51.19064 -3.59499 41092 ft 510 kts 102°
2026-04-17 07:20 51.18030 -3.48372 41104 ft 510 kts 102°
2026-04-17 07:21 51.16979 -3.37186 41099 ft 510 kts 102°
2026-04-17 07:21 51.15919 -3.26010 41110 ft 509 kts 102°
2026-04-17 07:22 51.14850 -3.14860 41101 ft 509 kts 102°
2026-04-17 07:22 51.13770 -3.03715 41118 ft 509 kts 102°
2026-04-17 07:23 51.12676 -2.92547 41124 ft 510 kts 102°
2026-04-17 07:23 51.11580 -2.81460 41128 ft 510 kts 102°
2026-04-17 07:24 51.10465 -2.70303 41128 ft 511 kts 102°
2026-04-17 07:24 51.09338 -2.59130 41131 ft 511 kts 102°
2026-04-17 07:25 51.08198 -2.47934 41132 ft 512 kts 102°
2026-04-17 07:25 51.07056 -2.36831 41132 ft 512 kts 102°
2026-04-17 07:26 51.05894 -2.25649 41141 ft 512 kts 102°
2026-04-17 07:26 51.04725 -2.14484 41142 ft 512 kts 102°
2026-04-17 07:27 51.03597 -2.03304 41154 ft 513 kts 98°
2026-04-17 07:27 51.03391 -1.92049 41150 ft 515 kts 88°
2026-04-17 07:28 51.03887 -1.80672 41157 ft 516 kts 87°
2026-04-17 07:28 51.04406 -1.69264 41158 ft 516 kts 87°
2026-04-17 07:29 51.04873 -1.57881 41155 ft 516 kts 88°
2026-04-17 07:29 51.05304 -1.46494 41161 ft 515 kts 88°
2026-04-17 07:30 51.05718 -1.35138 41159 ft 515 kts 88°
2026-04-17 07:30 51.06122 -1.23781 41158 ft 514 kts 88°
2026-04-17 07:31 51.06518 -1.12419 41160 ft 514 kts 88°
2026-04-17 07:31 51.06903 -1.01066 41157 ft 514 kts 88°
2026-04-17 07:32 51.07276 -0.89716 41160 ft 513 kts 88°
2026-04-17 07:32 51.07638 -0.78387 41164 ft 513 kts 88°
2026-04-17 07:33 51.07987 -0.67115 41159 ft 513 kts 88°
2026-04-17 07:33 51.08328 -0.55713 41168 ft 513 kts 88°
2026-04-17 07:34 51.08656 -0.44430 41181 ft 513 kts 88°
2026-04-17 07:34 51.08974 -0.33079 41185 ft 513 kts 88°
2026-04-17 07:35 51.09281 -0.21748 41183 ft 513 kts 88°
2026-04-17 07:35 51.09577 -0.10408 41184 ft 513 kts 88°
2026-04-17 07:36 51.09862 0.00942 41180 ft 513 kts 88°
2026-04-17 07:36 51.10136 0.12294 41183 ft 513 kts 88°
2026-04-17 07:37 51.10267 0.17885 40919 ft 513 kts 88°
2026-04-17 07:37 51.10398 0.23567 40874 ft 513 kts 88°
2026-04-17 07:37 51.10650 0.34921 40800 ft 512 kts 88°
2026-04-17 07:38 51.10891 0.46260 40799 ft 512 kts 88°
2026-04-17 07:38 51.11121 0.57587 40833 ft 512 kts 88°
2026-04-17 07:39 51.11340 0.68927 40934 ft 512 kts 88°
2026-04-17 07:39 51.11445 0.74594 41192 ft 512 kts 89°
2026-04-17 07:39 51.11548 0.80263 41192 ft 512 kts 89°
2026-04-17 07:40 51.11743 0.91514 41190 ft 512 kts 89°
2026-04-17 07:40 51.11930 1.02857 41177 ft 512 kts 89°
2026-04-17 07:41 51.12105 1.14208 41193 ft 512 kts 89°
2026-04-17 07:41 51.12269 1.25540 41181 ft 512 kts 89°
2026-04-17 07:42 51.12421 1.36815 41194 ft 512 kts 89°
2026-04-17 07:42 51.12560 1.47871 41181 ft 512 kts 89°
2026-04-17 07:43 51.12671 1.57297 41197 ft 512 kts 89°
2026-04-17 07:43 51.12793 1.68634 41191 ft 511 kts 89°
2026-04-17 07:44 51.12900 1.79391 41191 ft 511 kts 89°
2026-04-17 07:44 51.13002 1.90720 41193 ft 511 kts 89°
2026-04-17 07:45 51.13018 2.02033 41186 ft 511 kts 94°
2026-04-17 07:45 51.12443 2.13283 41196 ft 510 kts 96°
2026-04-17 07:46 51.11772 2.24543 41194 ft 510 kts 96°
2026-04-17 07:46 51.11134 2.35789 41198 ft 510 kts 95°
2026-04-17 07:47 51.10513 2.46962 41204 ft 510 kts 95°
2026-04-17 07:47 51.09876 2.58206 41203 ft 510 kts 95°
2026-04-17 07:48 51.08813 2.69368 41201 ft 508 kts 106°
2026-04-17 07:48 51.06851 2.80145 41172 ft 505 kts 108°
2026-04-17 07:49 51.05837 2.85503 40924 ft 504 kts 108°
2026-04-17 07:49 51.04832 2.90843 40533 ft 506 kts 108°
2026-04-17 07:49 51.03829 2.96228 40125 ft 508 kts 107°
2026-04-17 07:49 51.02834 3.01619 39728 ft 510 kts 107°
2026-04-17 07:50 51.01840 3.07031 39380 ft 511 kts 107°
2026-04-17 07:50 51.00843 3.12460 39054 ft 512 kts 107°
2026-04-17 07:50 50.99856 3.17815 38696 ft 512 kts 107°
2026-04-17 07:50 50.98853 3.23241 38279 ft 512 kts 107°
2026-04-17 07:51 50.97843 3.28680 37853 ft 512 kts 107°
2026-04-17 07:51 50.96834 3.34092 37421 ft 513 kts 107°
2026-04-17 07:51 50.95820 3.39517 36997 ft 513 kts 107°
2026-04-17 07:51 50.94797 3.44971 36551 ft 514 kts 108°
2026-04-17 07:52 50.93777 3.50398 36107 ft 514 kts 108°
2026-04-17 07:52 50.92752 3.55834 35673 ft 514 kts 108°
2026-04-17 07:52 50.91726 3.61266 35239 ft 514 kts 108°
2026-04-17 07:52 50.90695 3.66692 34797 ft 514 kts 108°
2026-04-17 07:53 50.89655 3.72110 34356 ft 514 kts 108°
2026-04-17 07:53 50.88619 3.77468 33866 ft 514 kts 108°
2026-04-17 07:53 50.87565 3.82897 33312 ft 515 kts 108°
2026-04-17 07:53 50.86510 3.88326 32739 ft 516 kts 108°
2026-04-17 07:54 50.85452 3.93755 32147 ft 517 kts 108°
2026-04-17 07:54 50.84390 3.99196 31554 ft 518 kts 108°
2026-04-17 07:54 50.83329 4.04620 30971 ft 518 kts 108°
2026-04-17 07:54 50.82256 4.10093 30491 ft 516 kts 108°
2026-04-17 07:55 50.81190 4.15512 30295 ft 515 kts 108°
2026-04-17 07:55 50.80124 4.20912 30239 ft 513 kts 108°
2026-04-17 07:55 50.77998 4.31647 30191 ft 510 kts 108°
2026-04-17 07:56 50.76938 4.36976 29845 ft 507 kts 108°
2026-04-17 07:56 50.75879 4.42289 29492 ft 506 kts 108°
2026-04-17 07:56 50.74834 4.47514 29165 ft 504 kts 108°
2026-04-17 07:56 50.73781 4.52774 28870 ft 501 kts 108°
2026-04-17 07:57 50.72730 4.58007 28608 ft 499 kts 108°
2026-04-17 07:57 50.71686 4.63224 28360 ft 496 kts 108°
2026-04-17 07:57 50.70675 4.68423 28109 ft 494 kts 107°
2026-04-17 07:57 50.69680 4.73600 27860 ft 492 kts 107°
2026-04-17 07:58 50.68687 4.78754 27615 ft 490 kts 107°
2026-04-17 07:58 50.67693 4.83885 27352 ft 489 kts 108°
2026-04-17 07:58 50.66693 4.89007 26949 ft 487 kts 108°
2026-04-17 07:58 50.65692 4.94080 26543 ft 482 kts 108°
2026-04-17 07:59 50.64675 4.99087 26132 ft 478 kts 109°
2026-04-17 07:59 50.63653 5.04035 25746 ft 474 kts 109°
2026-04-17 07:59 50.62633 5.08948 25358 ft 471 kts 109°
2026-04-17 07:59 50.61617 5.13833 24983 ft 468 kts 109°
2026-04-17 08:00 50.60606 5.18705 24603 ft 466 kts 109°
2026-04-17 08:00 50.59602 5.23540 24229 ft 464 kts 109°
2026-04-17 08:00 50.58605 5.28340 23855 ft 462 kts 109°
2026-04-17 08:00 50.57620 5.33075 23428 ft 459 kts 109°
2026-04-17 08:01 50.56611 5.37913 22997 ft 457 kts 109°
2026-04-17 08:01 50.55633 5.42586 22575 ft 454 kts 109°
2026-04-17 08:01 50.54648 5.47288 22183 ft 451 kts 109°
2026-04-17 08:01 50.53669 5.51946 21819 ft 447 kts 109°
2026-04-17 08:02 50.52696 5.56568 21447 ft 443 kts 109°
2026-04-17 08:02 50.51728 5.61151 21089 ft 440 kts 109°
2026-04-17 08:02 50.50791 5.65719 20725 ft 438 kts 108°
2026-04-17 08:02 50.49924 5.70297 20382 ft 436 kts 107°
2026-04-17 08:03 50.49090 5.74851 20040 ft 433 kts 107°
2026-04-17 08:03 50.48305 5.79149 19722 ft 432 kts 107°
2026-04-17 08:03 50.47473 5.83683 19389 ft 430 kts 107°
2026-04-17 08:03 50.46637 5.88180 19049 ft 428 kts 107°
2026-04-17 08:04 50.45797 5.92658 18725 ft 426 kts 107°
2026-04-17 08:04 50.44958 5.97101 18410 ft 424 kts 107°
2026-04-17 08:04 50.44120 6.01526 18030 ft 422 kts 107°
2026-04-17 08:04 50.43286 6.05921 17708 ft 419 kts 107°
2026-04-17 08:05 50.42454 6.10289 17392 ft 416 kts 107°
2026-04-17 08:05 50.41628 6.14621 17070 ft 414 kts 107°
2026-04-17 08:05 50.40804 6.18931 16767 ft 412 kts 107°
2026-04-17 08:05 50.39992 6.23175 16463 ft 410 kts 107°
2026-04-17 08:06 50.39172 6.27445 16161 ft 409 kts 107°
2026-04-17 08:06 50.38355 6.31694 15852 ft 407 kts 107°
2026-04-17 08:06 50.37535 6.35940 15554 ft 405 kts 107°
2026-04-17 08:06 50.36740 6.40168 15262 ft 404 kts 105°
2026-04-17 08:07 50.36182 6.44463 14979 ft 402 kts 98°
2026-04-17 08:07 50.35915 6.48825 14710 ft 401 kts 95°
2026-04-17 08:07 50.35689 6.53179 14430 ft 400 kts 95°
2026-04-17 08:07 50.35432 6.57498 14134 ft 399 kts 96°
2026-04-17 08:08 50.35158 6.61821 13818 ft 397 kts 96°
2026-04-17 08:08 50.34881 6.66117 13499 ft 395 kts 96°
2026-04-17 08:08 50.34607 6.70384 13193 ft 393 kts 96°
2026-04-17 08:08 50.34334 6.74620 12881 ft 390 kts 96°
2026-04-17 08:09 50.34071 6.78800 12592 ft 381 kts 96°
2026-04-17 08:09 50.33820 6.82811 12222 ft 353 kts 96°
2026-04-17 08:09 50.33593 6.86451 11890 ft 322 kts 96°
2026-04-17 08:09 50.33378 6.89787 11582 ft 307 kts 96°
2026-04-17 08:10 50.33158 6.93129 11296 ft 306 kts 96°
2026-04-17 08:10 50.32941 6.96422 11094 ft 302 kts 96°
2026-04-17 08:10 50.32725 6.99678 10965 ft 298 kts 96°
2026-04-17 08:10 50.32511 7.02902 10841 ft 297 kts 96°
2026-04-17 08:11 50.32297 7.06114 10718 ft 297 kts 96°
2026-04-17 08:11 50.32081 7.09326 10597 ft 296 kts 96°
2026-04-17 08:11 50.31868 7.12521 10484 ft 295 kts 96°
2026-04-17 08:11 50.31656 7.15681 10366 ft 295 kts 96°
2026-04-17 08:12 50.31440 7.18864 10250 ft 295 kts 96°
2026-04-17 08:12 50.31187 7.22042 10111 ft 289 kts 103°
2026-04-17 08:12 50.30325 7.24873 9972 ft 293 kts 131°
2026-04-17 08:12 50.28750 7.26872 9858 ft 292 kts 154°
2026-04-17 08:13 50.26896 7.28129 9730 ft 290 kts 159°
2026-04-17 08:13 50.25027 7.29335 9616 ft 291 kts 159°
2026-04-17 08:13 50.23156 7.30562 9478 ft 291 kts 158°
2026-04-17 08:14 50.19442 7.33021 9220 ft 288 kts 158°
2026-04-17 08:14 50.17634 7.34222 9072 ft 284 kts 158°
2026-04-17 08:14 50.15830 7.35419 8944 ft 281 kts 158°
2026-04-17 08:14 50.14038 7.36608 8817 ft 280 kts 158°
2026-04-17 08:15 50.12238 7.37804 8716 ft 280 kts 158°
2026-04-17 08:15 50.10435 7.39004 8600 ft 281 kts 158°
2026-04-17 08:15 50.08634 7.40197 8454 ft 281 kts 158°
2026-04-17 08:15 50.06835 7.41385 8346 ft 280 kts 158°
2026-04-17 08:16 50.05036 7.42573 8216 ft 280 kts 158°
2026-04-17 08:16 50.03244 7.43765 8086 ft 279 kts 158°
2026-04-17 08:16 50.01463 7.44948 7955 ft 278 kts 158°
2026-04-17 08:16 49.99694 7.46123 7831 ft 276 kts 158°
2026-04-17 08:17 49.97931 7.47291 7729 ft 274 kts 158°
2026-04-17 08:17 49.96179 7.48453 7591 ft 273 kts 158°
2026-04-17 08:17 49.94458 7.49591 7460 ft 272 kts 158°
2026-04-17 08:17 49.92725 7.50741 7333 ft 270 kts 158°
2026-04-17 08:18 49.91007 7.51882 7226 ft 268 kts 158°
2026-04-17 08:18 49.89291 7.53014 7078 ft 267 kts 158°
2026-04-17 08:18 49.87585 7.54137 6969 ft 266 kts 158°
2026-04-17 08:18 49.85876 7.55264 6824 ft 265 kts 158°
2026-04-17 08:19 49.84207 7.56363 6728 ft 263 kts 158°
2026-04-17 08:19 49.82510 7.57484 6608 ft 265 kts 158°
2026-04-17 08:19 49.80808 7.58600 6481 ft 267 kts 158°
2026-04-17 08:19 49.79061 7.59396 6333 ft 261 kts 178°
2026-04-17 08:20 49.77311 7.58846 6164 ft 256 kts 206°
2026-04-17 08:20 49.75868 7.57251 6089 ft 257 kts 224°
2026-04-17 08:20 49.74642 7.55221 5967 ft 260 kts 227°
2026-04-17 08:20 49.73439 7.53123 5821 ft 259 kts 227°
2026-04-17 08:21 49.72273 7.51079 5687 ft 253 kts 227°
2026-04-17 08:21 49.71132 7.49081 5631 ft 245 kts 227°
2026-04-17 08:21 49.70003 7.47111 5497 ft 244 kts 227°
2026-04-17 08:21 49.68885 7.45159 5370 ft 242 kts 227°
2026-04-17 08:22 49.67764 7.43221 5298 ft 241 kts 227°
2026-04-17 08:22 49.66650 7.41295 5281 ft 239 kts 227°
2026-04-17 08:22 49.65542 7.39381 5278 ft 237 kts 227°
2026-04-17 08:22 49.64435 7.37469 5283 ft 241 kts 227°
2026-04-17 08:23 49.63308 7.35534 5268 ft 243 kts 227°
2026-04-17 08:23 49.62198 7.33624 5257 ft 241 kts 227°
2026-04-17 08:23 49.61086 7.31710 5271 ft 240 kts 227°
2026-04-17 08:23 49.59972 7.29802 5266 ft 237 kts 227°
2026-04-17 08:24 49.58854 7.27883 5266 ft 243 kts 227°
2026-04-17 08:24 49.57724 7.25950 5268 ft 241 kts 226°
2026-04-17 08:24 49.56603 7.24042 5270 ft 241 kts 227°
2026-04-17 08:24 49.55475 7.22124 5261 ft 241 kts 227°
2026-04-17 08:25 49.54350 7.20201 5282 ft 243 kts 226°
2026-04-17 08:25 49.53211 7.18249 5270 ft 244 kts 227°
2026-04-17 08:25 49.52093 7.16346 5265 ft 244 kts 227°
2026-04-17 08:25 49.50957 7.14404 5288 ft 243 kts 227°
2026-04-17 08:26 49.49819 7.12464 5267 ft 243 kts 227°
2026-04-17 08:26 49.48688 7.10538 5271 ft 243 kts 226°
2026-04-17 08:26 49.47557 7.08618 5290 ft 241 kts 226°
2026-04-17 08:26 49.46426 7.06706 5290 ft 242 kts 226°
2026-04-17 08:27 49.45299 7.04791 5282 ft 241 kts 226°
2026-04-17 08:27 49.44106 7.03039 5253 ft 236 kts 210°
2026-04-17 08:27 49.42526 7.02359 5270 ft 240 kts 180°
2026-04-17 08:27 49.41434 7.02633 5269 ft 243 kts 161°
2026-04-17 08:28 49.40022 7.04010 5280 ft 244 kts 134°
2026-04-17 08:28 49.39253 7.06318 5277 ft 247 kts 102°
2026-04-17 08:28 49.39155 7.08926 5304 ft 245 kts 91°
2026-04-17 08:28 49.39223 7.11565 5296 ft 248 kts 87°
2026-04-17 08:29 49.39406 7.14239 5183 ft 255 kts 84°
2026-04-17 08:29 49.39638 7.16952 4994 ft 254 kts 83°
2026-04-17 08:29 49.39877 7.19617 4724 ft 249 kts 83°
2026-04-17 08:29 49.40110 7.22227 4522 ft 240 kts 83°
2026-04-17 08:30 49.40323 7.24613 4362 ft 216 kts 83°
2026-04-17 08:30 49.40516 7.26762 4178 ft 193 kts 83°
2026-04-17 08:30 49.40688 7.28738 4001 ft 182 kts 84°
2026-04-17 08:30 49.40855 7.30658 3975 ft 180 kts 83°
2026-04-17 08:31 49.41024 7.32567 3888 ft 181 kts 83°
2026-04-17 08:31 49.41192 7.34504 3719 ft 183 kts 84°
2026-04-17 08:31 49.41363 7.36432 3538 ft 180 kts 83°
2026-04-17 08:31 49.41532 7.38336 3298 ft 178 kts 83°
2026-04-17 08:32 49.41698 7.40219 3089 ft 179 kts 84°
2026-04-17 08:32 49.41864 7.42149 2828 ft 184 kts 84°
2026-04-17 08:32 49.42033 7.44035 2569 ft 174 kts 83°
2026-04-17 08:32 49.42196 7.45862 2363 ft 174 kts 83°
2026-04-17 08:33 49.42357 7.47711 2119 ft 175 kts 83°
2026-04-17 08:33 49.42520 7.49552 1877 ft 173 kts 83°
2026-04-17 08:33 49.42679 7.51347 1642 ft 163 kts 82°
2026-04-17 08:33 49.42824 7.52997 1386 ft 150 kts 82°
2026-04-17 08:34 49.42970 7.54586 1207 ft 149 kts 82°
2026-04-17 08:34 49.43108 7.56137 1002 ft 146 kts 82°
2026-04-17 08:34 49.43237 7.57649 836 ft 136 kts 82°
2026-04-17 08:34 49.43361 7.59039 1022 ft 137 kts 82°
2026-04-17 08:35 49.43501 7.60479 1599 ft 150 kts 81°
2026-04-17 08:35 49.43683 7.62220 2339 ft 181 kts 82°
2026-04-17 08:35 49.43893 7.64133 2944 ft 186 kts 81°
2026-04-17 08:35 49.44115 7.66139 3400 ft 195 kts 82°
2026-04-17 08:36 49.44334 7.68280 3838 ft 213 kts 82°
2026-04-17 08:36 49.44568 7.70590 4241 ft 228 kts 82°
2026-04-17 08:36 49.44815 7.73111 4612 ft 253 kts 83°
2026-04-17 08:36 49.44748 7.75878 4984 ft 262 kts 107°
2026-04-17 08:37 49.43881 7.78340 4998 ft 265 kts 134°
2026-04-17 08:37 49.42358 7.79880 4992 ft 264 kts 162°
2026-04-17 08:37 49.40550 7.80119 4999 ft 263 kts 190°
2026-04-17 08:37 49.38882 7.79012 5008 ft 264 kts 218°
2026-04-17 08:38 49.37741 7.76809 4998 ft 267 kts 245°
2026-04-17 08:38 49.37269 7.74082 5018 ft 265 kts 259°
2026-04-17 08:38 49.37004 7.71253 5026 ft 269 kts 262°
2026-04-17 08:38 49.36769 7.68403 5013 ft 270 kts 262°